Moncks Corner, SC

12:41 PM EST on February 21, 2017 (GMT -0500)
Moncks Corner

Weather History for KMKS - April, 2013

Change the Weather History Date:

Wednesday, April 3, 2013

  Actual Average (KCHS) Record (KCHS)
Temperature  
Mean Temperature 57 °F -  
Max Temperature 68 °F 73 °F 93 °F (1946)
Min Temperature 46 °F 50 °F 33 °F (1962)
Degree Days  
Heating Degree Days 8    
Growing Degree Days 7 (Base 50)    
Moisture  
Dew Point 45 °F    
Average Humidity 67    
Maximum Humidity 94    
Minimum Humidity 35    
Precipitation  
Precipitation 0.00 in - - ()
Sea Level Pressure  
Sea Level Pressure 30.16 in    
Wind  
Wind Speed 3 mph (NNE)    
Max Wind Speed 13 mph    
Max Gust Speed 18 mph    
Visibility 7 miles    
Events      
Averages and records for this station are not official NWS values.
T = Trace of Precipitation, MM = Missing Value Source: NWS Daily Summary

Daily Weather History Graph

Daily Weather History Graph

Search for Another Location

Airport or City:

Trip Planner

Search our weather history database for the weather conditions in past years. The results will help you decide how hot, cold, wet, or windy it might be!

Date:

Astronomy

Apr. 03, 2013 Rise Set
Actual Time 7:05 AM EDT 7:42 PM EDT
Civil Twilight 6:40 AM EDT 8:07 PM EDT
Nautical Twilight 6:10 AM EDT 8:36 PM EDT
Astronomical Twilight 5:40 AM EDT 9:06 PM EDT
Moon 2:24 AM EDT (4/3) 1:11 PM EDT (4/3)
Length of Visible Light 13h 27m
Length of Day
12h 37m
Last Quarter, 45% of the Moon is Illuminated
Apr 3
Last Quarter
Apr 10
New
Apr 18
First Quarter
Apr 25
Full
May 2
Last Quarter

Hourly Weather History & Observations

Time (EDT) Temp. Dew Point Humidity Pressure Visibility Wind Dir Wind Speed Gust Speed Precip Events Conditions
12:15 AM 51.8 °F 48.2 °F 88% 30.11 in 10.0 mi Calm Calm - N/A   Clear
12:35 AM 51.8 °F 48.2 °F 88% 30.11 in 7.0 mi Calm Calm - N/A   Clear
1:15 AM 51.8 °F 48.2 °F 88% 30.11 in 7.0 mi SSW 3.5 mph - N/A   Clear
1:35 AM 53.6 °F 50.0 °F 88% 30.11 in 7.0 mi Calm Calm - N/A   Clear
1:55 AM 51.8 °F 48.2 °F 88% 30.12 in 7.0 mi Calm Calm - N/A   Clear
2:15 AM 51.8 °F 50.0 °F 94% 30.11 in 7.0 mi Calm Calm - N/A   Clear
2:35 AM 50.0 °F 48.2 °F 94% 30.11 in 5.0 mi Calm Calm - N/A   Clear
3:15 AM 50.0 °F 48.2 °F 94% 30.09 in 4.0 mi Calm Calm - N/A   Clear
3:35 AM 50.0 °F 48.2 °F 94% 30.08 in 4.0 mi Calm Calm - N/A   Clear
3:55 AM 48.2 °F 46.4 °F 93% 30.09 in 7.0 mi Calm Calm - N/A   Clear
4:15 AM 48.2 °F 46.4 °F 93% 30.08 in 5.0 mi Calm Calm - N/A   Clear
4:35 AM 50.0 °F 46.4 °F 87% 30.08 in 4.0 mi Calm Calm - N/A   Clear
4:55 AM 48.2 °F 46.4 °F 93% 30.08 in 4.0 mi Calm Calm - N/A   Clear
5:15 AM 48.2 °F 46.4 °F 93% 30.08 in 5.0 mi Calm Calm - N/A   Clear
5:35 AM 48.2 °F 46.4 °F 93% 30.08 in 1.5 mi Calm Calm - N/A   Mist
5:55 AM 48.2 °F 46.4 °F 93% 30.08 in 2.5 mi Calm Calm - N/A   Clear
6:35 AM 48.2 °F 46.4 °F 93% 30.10 in 3.0 mi Calm Calm - N/A   Clear
6:55 AM 46.4 °F 44.6 °F 93% 30.11 in 2.5 mi Calm Calm - N/A   Clear
7:15 AM 48.2 °F 46.4 °F 93% 30.12 in 5.0 mi Calm Calm - N/A   Mostly Cloudy
7:35 AM 48.2 °F 46.4 °F 93% 30.13 in 5.0 mi Calm Calm - N/A   Overcast
7:55 AM 53.6 °F 51.8 °F 94% 30.14 in 4.0 mi North 4.6 mph - N/A   Overcast
8:15 AM 53.6 °F 51.8 °F 94% 30.16 in 4.0 mi North 4.6 mph - N/A   Mostly Cloudy
8:35 AM 53.6 °F 51.8 °F 94% 30.16 in 5.0 mi North 6.9 mph - N/A   Scattered Clouds
8:55 AM 55.4 °F 51.8 °F 88% 30.17 in 5.0 mi North 4.6 mph - N/A   Clear
9:15 AM 55.4 °F 51.8 °F 88% 30.16 in 7.0 mi NNE 5.8 mph - N/A   Clear
9:35 AM 57.2 °F 51.8 °F 82% 30.17 in 7.0 mi NE 8.1 mph - N/A   Clear
9:55 AM 57.2 °F 51.8 °F 82% 30.18 in 7.0 mi North 6.9 mph - N/A   Scattered Clouds
10:15 AM 59.0 °F 51.8 °F 77% 30.18 in 7.0 mi North 5.8 mph - N/A   Scattered Clouds
10:35 AM 59.0 °F 51.8 °F 77% 30.18 in 7.0 mi North 8.1 mph - N/A   Clear
11:15 AM 59.0 °F 50.0 °F 72% 30.20 in 7.0 mi North 8.1 mph - N/A   Clear
11:35 AM 60.8 °F 50.0 °F 68% 30.20 in 10.0 mi North 10.4 mph - N/A   Clear
11:55 AM 62.6 °F 48.2 °F 59% 30.20 in 7.0 mi North 10.4 mph - N/A   Clear
12:15 PM 62.6 °F 46.4 °F 55% 30.20 in 7.0 mi North 10.4 mph 17.3 mph N/A   Clear
12:35 PM 62.6 °F 44.6 °F 52% 30.21 in 7.0 mi North 9.2 mph - N/A   Clear
12:55 PM 62.6 °F 44.6 °F 52% 30.20 in 10.0 mi North 10.4 mph 16.1 mph N/A   Clear
1:15 PM 62.6 °F 42.8 °F 48% 30.19 in 7.0 mi North 10.4 mph 17.3 mph N/A   Clear
1:35 PM 64.4 °F 41.0 °F 42% 30.19 in 5.0 mi North 12.7 mph 17.3 mph N/A   Haze
1:55 PM 64.4 °F 41.0 °F 42% 30.18 in 7.0 mi North 12.7 mph - N/A   Clear
2:15 PM 64.4 °F 39.2 °F 40% 30.17 in 7.0 mi North 12.7 mph 18.4 mph N/A   Clear
2:35 PM 64.4 °F 39.2 °F 40% 30.17 in 10.0 mi North 9.2 mph 16.1 mph N/A   Clear
2:55 PM 66.2 °F 39.2 °F 37% 30.16 in 10.0 mi NNE 6.9 mph - N/A   Clear
3:15 PM 66.2 °F 39.2 °F 37% 30.16 in 10.0 mi NE 9.2 mph - N/A   Clear
3:35 PM 66.2 °F 39.2 °F 37% 30.16 in 10.0 mi North 10.4 mph - N/A   Clear
3:55 PM 68.0 °F 39.2 °F 35% 30.16 in 10.0 mi NE 3.5 mph - N/A   Clear
4:35 PM 66.2 °F 37.4 °F 35% 30.16 in 10.0 mi North 10.4 mph - N/A   Clear
4:55 PM 66.2 °F 37.4 °F 35% 30.16 in 10.0 mi North 9.2 mph - N/A   Clear
5:15 PM 66.2 °F 39.2 °F 37% 30.16 in 7.0 mi NNE 8.1 mph - N/A   Clear
5:35 PM 64.4 °F 39.2 °F 40% 30.16 in 5.0 mi North 5.8 mph - N/A   Haze
5:55 PM 64.4 °F 39.2 °F 40% 30.16 in 10.0 mi North 5.8 mph - N/A   Clear
6:35 PM 64.4 °F 42.8 °F 45% 30.16 in 10.0 mi NNE 3.5 mph - N/A   Clear
6:55 PM 64.4 °F 39.2 °F 40% 30.17 in 10.0 mi ENE 6.9 mph - N/A   Clear
7:15 PM 64.4 °F 39.2 °F 40% 30.17 in 7.0 mi ESE 5.8 mph - N/A   Clear
7:35 PM 62.6 °F 39.2 °F 42% 30.18 in 7.0 mi East 4.6 mph - N/A   Clear
7:55 PM 60.8 °F 39.2 °F 45% 30.19 in 7.0 mi East 5.8 mph - N/A   Mostly Cloudy
8:15 PM 60.8 °F 39.2 °F 45% 30.19 in 10.0 mi East 5.8 mph - N/A   Mostly Cloudy
8:35 PM 59.0 °F 39.2 °F 48% 30.20 in 10.0 mi East 6.9 mph - N/A   Clear
8:55 PM 59.0 °F 41.0 °F 51% 30.21 in 10.0 mi East 5.8 mph - N/A   Scattered Clouds
9:15 PM 59.0 °F 41.0 °F 51% 30.21 in 7.0 mi East 6.9 mph - N/A   Mostly Cloudy
9:35 PM 57.2 °F 41.0 °F 55% 30.22 in 10.0 mi East 8.1 mph - N/A   Overcast
9:55 PM 57.2 °F 41.0 °F 55% 30.23 in 7.0 mi East 5.8 mph - N/A   Overcast
10:15 PM 57.2 °F 42.8 °F 59% 30.23 in 10.0 mi East 4.6 mph - N/A   Overcast
10:35 PM 55.4 °F 42.8 °F 63% 30.23 in 10.0 mi East 4.6 mph - N/A   Overcast
10:55 PM 55.4 °F 42.8 °F 63% 30.23 in 10.0 mi East 5.8 mph - N/A   Mostly Cloudy
11:15 PM 55.4 °F 42.8 °F 63% 30.23 in 10.0 mi East 5.8 mph - N/A   Scattered Clouds
11:35 PM 55.4 °F 42.8 °F 63% 30.24 in 10.0 mi East 4.6 mph - N/A   Mostly Cloudy